Weather History for Laramie, WY

Change the Weather History Date:

Sunday, June 8, 2014

  Actual Average Record
Temperature  
Mean Temperature 45 °F 55 °F  
Max Temperature 58 °F 70 °F 87 °F (2002)
Min Temperature 32 °F 40 °F 24 °F (2007)
Degree Days  
Heating Degree Days 20 10  
Month to date heating degree days 75 91  
Since 1 June heating degree days 75 91  
Since 1 July heating degree days 8465 8680  
Cooling Degree Days 0 0  
Month to date cooling degree days 0 0  
Year to date cooling degree days 0 0  
Since 1 June cooling degree days 0 0  
Moisture  
Dew Point 41 °F    
Average Humidity 77    
Maximum Humidity 93    
Minimum Humidity 61    
Precipitation  
Precipitation 0.24 in 0.06 in 0.82 in (1974)
Month to date precipitation 0.24 0.51  
Year to date precipitation 5.32 4.46  
Sea Level Pressure  
Sea Level Pressure 30.02 in    
Wind  
Wind Speed 13 mph (NNW)    
Max Wind Speed 31 mph    
Max Gust Speed 38 mph    
Visibility 8 miles    
Events Rain , Thunderstorm    
T = Trace of Precipitation, MM = Missing Value Source: NWS Daily Summary

Daily Weather History Graph

Daily Weather History Graph

Search for Another Location

Airport:

Trip Planner

Search our weather history database for the weather conditions in past years. The results will help you decide how hot, cold, wet, or windy it might be!

Date:

Astronomy

Jun. 08, 2014 Rise Set
Actual Time 5:29 AM MDT 8:34 PM MDT
Civil Twilight 4:55 AM MDT 9:07 PM MDT
Nautical Twilight 4:13 AM MDT 9:50 PM MDT
Astronomical Twilight 3:22 AM MDT 10:41 PM MDT
Moon 3:52 PM MDT (6/8) 2:27 AM MDT (6/8)
Length of Visible Light 16h 11m
Length of Day
15h 04m
Waxing Gibbous, 77% of the Moon is Illuminated
Jun 8
Waxing Gibbous
Jun 12
Full
Jun 19
Last Quarter
Jun 27
New
Jul 5
First Quarter

Hourly Weather History & Observations

Time (MDT) Temp. Windchill Dew Point Humidity Pressure Visibility Wind Dir Wind Speed Gust Speed Precip Events Conditions
12:53 AM 46.9 °F - 45.0 °F 93% 29.78 in 9.0 mi SSE 26.5 mph 35.7 mph N/A   Overcast
1:53 AM 48.0 °F - 45.0 °F 89% 29.79 in 9.0 mi South 24.2 mph 29.9 mph N/A   Overcast
2:48 AM 46.4 °F 39.2 °F 44.6 °F 93% 30.04 in 8.0 mi SSE 18.4 mph - N/A   Mostly Cloudy
2:53 AM 46.9 °F - 45.0 °F 93% 29.80 in 8.0 mi SSE 19.6 mph - N/A   Mostly Cloudy
3:17 AM 46.0 °F 38.5 °F 44.1 °F 93% 30.02 in 8.0 mi SSE 19.6 mph - N/A   Scattered Clouds
3:53 AM 46.0 °F 39.3 °F 44.1 °F 93% 29.78 in 10.0 mi SSE 16.1 mph - N/A   Clear
4:53 AM 45.0 °F 38.9 °F 43.0 °F 93% 29.79 in 10.0 mi South 12.7 mph - N/A   Clear
5:53 AM 44.1 °F 39.5 °F 42.1 °F 93% 29.82 in 8.0 mi South 8.1 mph - N/A   Clear
6:53 AM 46.0 °F 41.9 °F 43.0 °F 89% 29.84 in 10.0 mi SSE 8.1 mph - N/A   Clear
7:53 AM 48.9 °F - 44.1 °F 83% 29.85 in 10.0 mi Calm Calm - N/A   Clear
8:28 AM 48.9 °F - 43.0 °F 80% 30.07 in 10.0 mi North 13.8 mph - N/A   Scattered Clouds
8:37 AM 48.9 °F - 43.0 °F 80% 30.07 in 10.0 mi North 16.1 mph - N/A   Mostly Cloudy
8:50 AM 51.8 °F - 42.8 °F 71% 30.08 in 10.0 mi North 13.8 mph - N/A   Mostly Cloudy
8:53 AM 51.1 °F - 43.0 °F 74% 29.87 in 10.0 mi North 13.8 mph - N/A   Mostly Cloudy
9:24 AM 52.0 °F - 43.0 °F 71% 30.08 in 10.0 mi NNW 9.2 mph - N/A   Scattered Clouds
9:46 AM 55.0 °F - 44.1 °F 67% 30.08 in 10.0 mi North 11.5 mph - N/A   Mostly Cloudy
9:53 AM 53.1 °F - 43.0 °F 69% 29.86 in 10.0 mi North 13.8 mph - N/A   Mostly Cloudy
10:13 AM 55.0 °F - 43.0 °F 64% 30.07 in 10.0 mi North 16.1 mph 23.0 mph N/A   Scattered Clouds
10:53 AM 57.9 °F - 44.1 °F 60% 29.85 in 10.0 mi North 15.0 mph 19.6 mph N/A   Partly Cloudy
11:29 AM 55.9 °F - 43.0 °F 62% 30.08 in 10.0 mi North 11.5 mph - N/A   Mostly Cloudy
11:53 AM 55.9 °F - 43.0 °F 62% 29.84 in 10.0 mi North 13.8 mph - N/A   Scattered Clouds
12:21 PM 53.1 °F - 42.1 °F 66% 30.06 in 10.0 mi North 17.3 mph 24.2 mph N/A Thunderstorm Overcast
12:48 PM 51.8 °F - 44.6 °F 76% 30.07 in 10.0 mi NNW 16.1 mph 24.2 mph 0.00 in Rain Light Rain
12:53 PM 51.1 °F - 44.1 °F 77% 29.88 in 10.0 mi NNW 17.3 mph 24.2 mph 0.00 in Rain Light Rain
1:53 PM 45.0 °F 37.9 °F 41.0 °F 86% 29.91 in 2.0 mi NW 16.1 mph - 0.04 in Rain Rain
2:02 PM 45.0 °F 39.3 °F 41.0 °F 86% 30.09 in 1.8 mi NW 11.5 mph - 0.02 in Rain Rain
2:09 PM 46.0 °F 41.9 °F 41.0 °F 83% 30.09 in 3.0 mi NW 8.1 mph - 0.03 in Rain Light Rain
2:31 PM 46.0 °F 41.9 °F 41.0 °F 83% 30.09 in 2.5 mi WNW 8.1 mph - 0.05 in Rain Light Rain
2:49 PM 46.4 °F 42.4 °F 41.0 °F 81% 30.09 in 4.0 mi WNW 8.1 mph - 0.07 in Rain Light Rain
2:53 PM 46.0 °F 41.0 °F 42.1 °F 86% 29.91 in 5.0 mi WNW 10.4 mph - 0.07 in Rain Light Rain
3:23 PM 45.0 °F 35.2 °F 42.1 °F 90% 30.10 in 1.8 mi WNW 29.9 mph 35.7 mph 0.03 in Rain Rain
3:29 PM 43.0 °F 33.3 °F 39.9 °F 89% 30.10 in 1.0 mi NW 25.3 mph 38.0 mph 0.05 in Rain Heavy Rain
3:44 PM 41.0 °F 30.5 °F 39.0 °F 93% 30.12 in 1.8 mi NW 26.5 mph 36.8 mph 0.09 in Rain Rain
3:47 PM 41.0 °F 30.2 °F 39.2 °F 93% 30.12 in 2.5 mi NW 27.6 mph 32.2 mph 0.09 in Rain Light Rain
3:53 PM 42.1 °F 32.3 °F 39.0 °F 89% 29.97 in 4.0 mi NW 24.2 mph 32.2 mph 0.09 in Rain Light Rain
4:02 PM 42.1 °F 31.7 °F 39.9 °F 92% 30.11 in 3.0 mi NNW 27.6 mph 33.4 mph 0.01 in Rain Light Rain
4:15 PM 42.1 °F 33.6 °F 39.9 °F 92% 30.11 in 3.0 mi NNW 18.4 mph 31.1 mph 0.02 in Rain Light Rain
4:44 PM 42.1 °F 33.3 °F 39.9 °F 92% 30.13 in 4.0 mi North 19.6 mph - 0.03 in Rain Light Rain
4:53 PM 43.0 °F 35.4 °F 39.9 °F 89% 29.98 in 5.0 mi North 16.1 mph - 0.03 in Rain Light Rain
5:02 PM 42.1 °F 34.2 °F 39.9 °F 92% 30.12 in 7.0 mi North 16.1 mph - 0.00 in Rain Light Rain
5:17 PM 42.1 °F 34.5 °F 39.9 °F 92% 30.13 in 6.0 mi North 15.0 mph - 0.00 in Rain Light Rain
5:44 PM 41.0 °F 33.1 °F 39.0 °F 93% 30.14 in 2.5 mi North 15.0 mph - 0.01 in Rain Light Rain
5:53 PM 41.0 °F 33.9 °F 39.0 °F 93% 30.02 in 3.0 mi North 12.7 mph - 0.01 in Rain Light Rain
6:03 PM 42.1 °F 35.7 °F 39.9 °F 92% 30.15 in 9.0 mi North 11.5 mph - 0.00 in Rain Light Rain
6:12 PM 42.1 °F 35.2 °F 39.9 °F 92% 30.15 in 10.0 mi North 12.7 mph - 0.00 in   Overcast
6:49 PM 42.8 °F 35.8 °F 37.4 °F 81% 30.15 in 10.0 mi NNW 13.8 mph - 0.00 in   Overcast
6:53 PM 42.1 °F 34.9 °F 37.9 °F 85% 30.01 in 10.0 mi North 13.8 mph - 0.00 in   Overcast
7:16 PM 42.1 °F - 37.0 °F 82% 30.16 in 10.0 mi North - - N/A   Overcast
7:23 PM 42.1 °F - 37.0 °F 82% 30.16 in 10.0 mi North - - N/A   Overcast
7:30 PM 42.1 °F - 37.0 °F 82% 30.17 in 10.0 mi North - - N/A   Overcast
7:38 PM 42.1 °F - 37.0 °F 82% 30.17 in 10.0 mi North - - N/A   Overcast
7:53 PM 42.1 °F 34.5 °F 37.0 °F 82% 30.02 in 10.0 mi North 15.0 mph - N/A   Overcast
8:53 PM 41.0 °F 32.5 °F 36.0 °F 82% 30.04 in 10.0 mi North 17.3 mph - N/A   Overcast
9:25 PM 39.9 °F 31.8 °F 34.0 °F 79% 30.22 in 10.0 mi North 15.0 mph - N/A   Scattered Clouds
9:53 PM 39.0 °F 31.4 °F 33.1 °F 79% 30.06 in 10.0 mi North 12.7 mph - N/A   Clear
10:53 PM 37.0 °F 29.8 °F 34.0 °F 89% 30.06 in 10.0 mi NW 10.4 mph - N/A   Partly Cloudy
11:53 PM 36.0 °F 29.6 °F 33.1 °F 89% 30.08 in 10.0 mi NW 8.1 mph - N/A   Clear